AirNav   ProFlight Series 2 Aviation Headset
 
 1412 users online  

I93 Breckinridge County Airport
Hardinsburg, Kentucky, USA

GOING TO HARDINSBURG?


FAA INFORMATION EFFECTIVE 08 OCTOBER 2020

Location

FAA Identifier: I93
Lat/Long: 37-47-05.3000N 086-26-28.6000W
37-47.088333N 086-26.476667W
37.7848056,-86.4412778
(estimated)
Elevation: 732.1 ft. / 223.1 m (surveyed)
Variation: 04W (2020)
From city: 1 mile E of HARDINSBURG, KY
Time zone: UTC -5 (UTC -6 during Standard Time)
Zip code: 40143

Airport Operations

Airport use: Open to the public
Activation date: 04/1968
Control tower: no
ARTCC: INDIANAPOLIS CENTER
FSS: LOUISVILLE FLIGHT SERVICE STATION
NOTAMs facility: LOU (NOTAM-D service available)
Attendance: UNATNDD
Wind indicator: lighted
Segmented circle: no
Lights: ACTVT REIL RYS 10 & 28; PAPI RYS 10 & 28; MIRL RY 10/28 - 122.9.
Beacon: white-green (lighted land airport)
Operates sunset to sunrise.

Airport Communications

CTAF: 122.9
LOUISVILLE APPROACH: 132.075
LOUISVILLE DEPARTURE: 132.075

Nearby radio navigation aids

VOR radial/distance  VOR name  Freq  Var
MYSr236/(11.4)MYSTIC VOR108.2001W
FTKr253/23.4FORT KNOX VOR/DME109.6001W
OWBr090/34.5OWENSBORO VOR/DME108.6004W
EWOr283/37.5NEW HOPE VOR/DME110.8001E

 
NDB name  Hdg/Dist  Freq  Var  ID
GODMAN248/24.439603WGOI --. --- ..

Airport Services

Fuel available: 100LL
Parking: tiedowns
Airframe service: NONE
Powerplant service: NONE
Bottled oxygen: NONE
Bulk oxygen: NONE

Runway Information

Runway 10/28

Dimensions: 4000 x 75 ft. / 1219 x 23 m
Surface: concrete, in good condition
Weight bearing capacity: 
PCN 11 /R/C/W/U
Runway edge lights: medium intensity
RUNWAY 10  RUNWAY 28
Latitude: 37-47.127623N37-47.049373N
Longitude: 086-26.888250W086-26.063687W
Elevation: 714.2 ft.732.1 ft.
Traffic pattern: leftleft
Markings: nonprecision, in fair conditionnonprecision, in fair condition
Visual slope indicator: 2-light PAPI on left (3.10 degrees glide path)2-light PAPI on left (3.00 degrees glide path)
Runway end identifier lights: yesyes
Touchdown point: yes, no lightsyes, no lights

Airport Ownership and Management from official FAA records

Ownership: Publicly-owned
Owner: BRECKINRIDGE CO ARPT BOARD
BOX 742
HARDINSBURG, KY 40143
Phone (270) 580-4465
Manager: BRECKINRIDGE CO ARPT BOARD
799 OAK STREET
HARDINSBURG, KY 40143
Phone (270) 456-6062
AIR BOARD CHAIR - MILLER MONARCH.

Airport Operational Statistics

Aircraft based on the field: 11
Single engine airplanes: 9
Multi engine airplanes: 2
    
Aircraft operations: avg 57/week *
43% local general aviation
36% transient general aviation
14% air taxi
7% military
* for 12-month period ending 05 December 2019

Additional Remarks

FUEL AVBL 24 HRS W/CREDIT CARD
FOR CD CTC LOUISVILLE APCH AT 502-375-7499

Instrument Procedures

NOTE: All procedures below are presented as PDF files. If you need a reader for these files, you should download the free Adobe Reader.

NOT FOR NAVIGATION. Please procure official charts for flight.
FAA instrument procedures published for use from 08 October 2020 at 0901Z to 05 November 2020 at 0900Z.

 
IAPs - Instrument Approach Procedures
RNAV (GPS) RWY 10   download (206KB)
RNAV (GPS) RWY 28   download (213KB)
NOTE: Special Take-Off Minimums/Departure Procedures apply   download (279KB)

Other nearby airports with instrument procedures:

KTEL - Perry County Municipal Airport (18 nm NW)
KY8 - Hancock County Airport-Ron Lewis Field (22 nm NW)
KFTK - Godman Army Airfield (23 nm E)
M20 - Leitchfield-Grayson County Airport (25 nm S)
KEKX - Addington Field Airport (25 nm E)
 
Loc | Ops | Rwys | IFR | FBO | Links
Com | Nav | Svcs | Stats | Notes
Area around I93 (Breckinridge County Airport)
 
Road maps at: MapQuest Bing Google
 
Aerial photo
WARNING: Photo may not be current or correct
Aerial photo of I93 (Breckinridge County Airport)
looking north.

Do you have a better or more recent aerial photo of Breckinridge County Airport that you would like to share? If so, please send us your photo.

 
Sectional chart

 
Airport distance calculator
Flying to Breckinridge County Airport? Find the distance to fly.

From to I93

Sunrise and sunset
Times for 19-Oct-2020
 Local
(UTC-5)
 Zulu
(UTC)
Morning civil twilight06:3311:33
Sunrise07:0012:00
Sunset18:0123:01
Evening civil twilight18:2823:28

Current date and time
Zulu (UTC)  19-Oct-2020 21:40:25
Local (UTC-5)  19-Oct-2020 16:40:25
 
METAR
KKY8 
22nm NW 
192115Z AUTO 00000KT 9SM BKN005 17/17 A3006 RMK A01
KFTK 
23nm E 
192056Z 17004KT 10SM BKN010 OVC100 17/17 A3008 RMK SLP187 60000 T01730173 57016
KEKX 
28nm E 
192115Z AUTO 21005KT 10SM SCT008 BKN013 OVC120 17/17 A3009 RMK AO2 T01720172
KOWB 
35nm W 
192056Z 09003KT 5SM BR OVC004 16/16 A3005 RMK AO2 SLP174 T01560156 56025
KHNB 
37nm NW 
192113Z AUTO 04006KT 3/4SM BR OVC003 13/13 A3006 RMK AO2
KSDF 
41nm NE 
192117Z 17005KT 10SM OVC019 18/16 A3007 RMK AO2 T01830161
KFRH 
44nm N 
192115Z AUTO 05006KT 3SM OVC003 10/ A3008 RMK AO1
TAF
KFTK 
23nm E 
192005Z 1920/2017 VRB05KT 3200 -RA BR SCT006 OVC012 QNH2995INS BECMG 1923/1924 21005KT 8000 -SHRA BR SCT007 OVC012 QNH2992INS BECMG 2011/2012 VRB05KT 9999 NSW SCT008 BKN015 QNH3000INS TX18/1920Z TN13/2011Z
NOTAMs
Click for the latest NOTAMs
NOTAMs are issued by the DoD/FAA and will open in a separate window not controlled by AirNav.

 

 
 

FBO, Fuel Providers, and Aircraft Ground Support

  
 Business Name 
 
 Contact 
 
 Services / Description 
 
Fuel Prices
 
Comments
  
Breckinridge County Airport 270-617-1111
[email]
Airport management, Aviation fuel, Aircraft parking (ramp or tiedown), Passenger terminal and lounge, Rental cars delivered, Pilots lounge / snooze room, ...

More info about Breckinridge County Airport
Shell
100LL
SS $3.99 
 Updated 19-Oct-2020
 
   2 read write
SS=Self service
Update Fuel Prices
 

Would you like to see your business listed on this page?

 If your business provides an interesting product or service to pilots, flight crews, aircraft, or users of the Breckinridge County Airport, you should consider listing it here.  To start the listing process, click on the button below
 
Add a business
 

Other Pages about Breckinridge County Airport

Update a link
 
Copyright © AirNav, LLC. All rights reserved. Privacy Policy  Contact